Aduana, Mexico

6:25 PM on April 28, 2017 (GMT +0000)
Aduana

Weather History for 76590 - May, 2013

Change the Weather History Date:

Monday, May 20, 2013

  Actual Average Record
Temperature  
Mean Temperature 84 °F -  
Max Temperature 87 °F 88 °F - ()
Min Temperature 80 °F 74 °F - ()
Cooling Degree Days 18    
Growing Degree Days 34 (Base 50)    
Moisture  
Dew Point 75 °F    
Average Humidity 76    
Maximum Humidity 84    
Minimum Humidity 66    
Precipitation  
Precipitation 0.00 in - - ()
Sea Level Pressure  
Sea Level Pressure 29.93 in    
Wind  
Wind Speed 11 mph ()    
Max Wind Speed 17 mph    
Max Gust Speed -    
Visibility 7.0 miles    
Events      
T = Trace of Precipitation, MM = Missing Value Source: Averaged Metar Reports

Daily Weather History Graph

Daily Weather History Graph

Search for Another Location

Airport or City:

Trip Planner

Search our weather history database for the weather conditions in past years. The results will help you decide how hot, cold, wet, or windy it might be!

Date:

Astronomy

May. 20, 2013 Rise Set
Actual Time 11:07 AM UTC 12:20 AM UTC
Civil Twilight 10:43 AM UTC 12:44 AM UTC
Nautical Twilight 10:15 AM UTC 1:13 AM UTC
Astronomical Twilight 9:45 AM UTC 1:42 AM UTC
Moon 8:00 PM UTC (5/20) 7:25 AM UTC (5/20)
Length of Visible Light 14h 00m
Length of Day
13h 12m
Waxing Gibbous, 73% of the Moon is Illuminated
May 20
Waxing Gibbous
May 25
Full
May 31
Last Quarter
Jun 8
New
Jun 16
First Quarter

Hourly Weather History & Observations

Time (GMT) Temp. Heat Index Dew Point Humidity Pressure Visibility Wind Dir Wind Speed Gust Speed Precip Events Conditions
12:43 AM 82.4 °F 89.5 °F 75.2 °F 79% 29.92 in 7.0 mi SE 12.7 mph - N/A   Scattered Clouds
1:41 AM 80.6 °F 86.2 °F 75.2 °F 84% 29.94 in 7.0 mi ESE 10.4 mph - N/A   Partly Cloudy
2:48 AM 80.6 °F 86.2 °F 75.2 °F 84% 29.92 in 7.0 mi SE 8.1 mph - N/A   Partly Cloudy
3:47 AM 80.6 °F 86.2 °F 75.2 °F 84% 29.97 in 7.0 mi SE 11.5 mph - N/A   Scattered Clouds
4:46 AM 80.6 °F 86.2 °F 75.2 °F 84% 29.97 in 7.0 mi ESE 10.4 mph - N/A   Scattered Clouds
5:45 AM 80.6 °F 85.4 °F 73.4 °F 79% 29.93 in 7.0 mi ESE 12.7 mph - N/A   Scattered Clouds
6:44 AM 80.6 °F 86.2 °F 75.2 °F 84% 29.93 in 7.0 mi SE 12.7 mph - N/A   Mostly Cloudy
7:43 AM 80.6 °F 85.4 °F 73.4 °F 79% 29.92 in 7.0 mi East 6.9 mph - N/A   Mostly Cloudy
8:46 AM 80.6 °F 86.2 °F 75.2 °F 84% 29.90 in 7.0 mi ESE 8.1 mph - N/A   Mostly Cloudy
9:45 AM 80.6 °F 85.4 °F 73.4 °F 79% 29.91 in 7.0 mi ESE 9.2 mph - N/A   Mostly Cloudy
10:44 AM 80.6 °F 85.4 °F 73.4 °F 79% 29.92 in 7.0 mi ESE 6.9 mph - N/A   Scattered Clouds
11:43 AM 82.4 °F 88.2 °F 73.4 °F 74% 29.93 in 7.0 mi ESE 11.5 mph - N/A   Scattered Clouds
12:41 PM 84.2 °F 92.3 °F 75.2 °F 74% 29.95 in 7.0 mi SE 17.3 mph - N/A   Scattered Clouds
1:42 PM 86.0 °F 95.1 °F 75.2 °F 70% 29.96 in 7.0 mi SE 13.8 mph - N/A   Mostly Cloudy
2:42 PM 86.0 °F 95.1 °F 75.2 °F 70% 29.97 in 7.0 mi SE 15.0 mph - N/A   Mostly Cloudy
3:41 PM 86.0 °F 95.1 °F 75.2 °F 70% 29.97 in 7.0 mi ESE 16.1 mph - N/A   Mostly Cloudy
4:43 PM 87.8 °F 97.6 °F 75.2 °F 66% 29.96 in 7.0 mi SE 17.3 mph - N/A   Mostly Cloudy
5:41 PM 86.0 °F 93.4 °F 73.4 °F 66% 29.96 in 7.0 mi SSE 16.1 mph - N/A   Mostly Cloudy
6:43 PM 87.8 °F 97.6 °F 75.2 °F 66% 29.94 in 7.0 mi SE 15.0 mph - N/A   Mostly Cloudy
7:48 PM 86.0 °F 95.1 °F 75.2 °F 70% 29.92 in 7.0 mi ESE 13.8 mph - N/A   Mostly Cloudy
8:43 PM 86.0 °F 95.1 °F 75.2 °F 70% 29.94 in 7.0 mi SE 16.1 mph - N/A   Mostly Cloudy
9:42 PM 86.0 °F 95.1 °F 75.2 °F 70% 29.89 in 7.0 mi SE 13.8 mph - N/A   Mostly Cloudy
10:47 PM 84.2 °F 92.3 °F 75.2 °F 74% 29.88 in 7.0 mi ESE 13.8 mph - N/A   Mostly Cloudy
11:46 PM 82.4 °F 89.5 °F 75.2 °F 79% 29.90 in 7.0 mi SE 12.7 mph - N/A   Scattered Clouds